• în România
  • Lista ţărilor
  • Pe 7 zile
  • Temperatura apei
  • Hartă satelitară
  • Meteo pe hartă
  • Widget-uri
  • user-avatar
    Intrare

    Meteo pe oră la Igls

    Astăzi, 22 Mai, Marţi

    Timp Temperatura Precipitaţii Vânt Presiune Umiditate
    00:00 +10°C° 0 mm 2 m/s 682 mmHg 91%
    01:00 +9°C° 0 mm 2 m/s 682 mmHg 92%
    02:00 +9°C° 0 mm 2 m/s 682 mmHg 92%
    03:00 +9°C° 0 mm 2 m/s 681 mmHg 91%
    04:00 +8°C° 0 mm 2 m/s 681 mmHg 91%
    05:00 +10°C° 0 mm 2 m/s 682 mmHg 87%
    06:00 +13°C° 0 mm 1 m/s 682 mmHg 83%
    07:00 +14°C° 0 mm 1 m/s 682 mmHg 78%
    08:00 +16°C° 0 mm 1 m/s 683 mmHg 71%
    09:00 +18°C° 0 mm 1 m/s 683 mmHg 64%
    10:00 +20°C° 0 mm 1 m/s 683 mmHg 57%
    11:00 +20°C° 0,2 mm 1 m/s 683 mmHg 57%
    12:00 +20°C° 0,2 mm 1 m/s 683 mmHg 58%
    13:00 +20°C° 0,2 mm 2 m/s 683 mmHg 58%
    14:00 +20°C° 0,6 mm 2 m/s 683 mmHg 61%
    15:00 +19°C° 0,6 mm 2 m/s 683 mmHg 65%
    16:00 +19°C° 0,6 mm 2 m/s 682 mmHg 68%
    17:00 +18°C° 0,9 mm 2 m/s 682 mmHg 74%
    18:00 +18°C° 0,9 mm 1 m/s 682 mmHg 80%
    19:00 +16°C° 0,9 mm 1 m/s 682 mmHg 86%
    20:00 +15°C° 0,6 mm 1 m/s 683 mmHg 89%
    21:00 +13°C° 0,6 mm 1 m/s 683 mmHg 91%
    22:00 +12°C° 0,6 mm 1 m/s 683 mmHg 94%
    23:00 +12°C° 0,1 mm 1 m/s 683 mmHg 94%

    Mâine, 23 Mai, Miercuri

    Timp Temperatura Precipitaţii Vânt Presiune Umiditate
    00:00 +11°C° 0,1 mm 1 m/s 683 mmHg 94%
    01:00 +10°C° 0,1 mm 2 m/s 683 mmHg 93%
    02:00 +11°C° 0 mm 1 m/s 683 mmHg 93%
    03:00 +11°C° 0 mm 1 m/s 684 mmHg 93%
    04:00 +10°C° 0 mm 1 m/s 684 mmHg 92%
    05:00 +12°C° 0 mm 1 m/s 684 mmHg 88%
    06:00 +13°C° 0 mm 1 m/s 685 mmHg 84%
    07:00 +14°C° 0 mm 0 m/s 685 mmHg 80%
    08:00 +18°C° 0,1 mm 1 m/s 685 mmHg 74%
    09:00 +19°C° 0,1 mm 1 m/s 686 mmHg 69%
    10:00 +21°C° 0,1 mm 1 m/s 686 mmHg 64%
    11:00 +21°C° 0,9 mm 1 m/s 686 mmHg 64%
    12:00 +21°C° 0,9 mm 1 m/s 686 mmHg 65%
    13:00 +22°C° 0,9 mm 1 m/s 686 mmHg 65%
    14:00 +22°C° 1,2 mm 1 m/s 686 mmHg 67%
    15:00 +21°C° 1,2 mm 1 m/s 685 mmHg 68%
    16:00 +21°C° 1,2 mm 1 m/s 685 mmHg 70%
    17:00 +20°C° 1 mm 1 m/s 685 mmHg 76%
    18:00 +19°C° 1 mm 1 m/s 685 mmHg 82%
    19:00 +18°C° 1 mm 1 m/s 685 mmHg 88%
    20:00 +16°C° 1,1 mm 1 m/s 685 mmHg 90%
    21:00 +14°C° 1,1 mm 1 m/s 686 mmHg 92%
    22:00 +13°C° 1,1 mm 1 m/s 686 mmHg 94%
    23:00 +13°C° 0,3 mm 1 m/s 685 mmHg 93%

    Poimâine, 24 Mai, Joi

    Timp Temperatura Precipitaţii Vânt Presiune Umiditate
    00:00 +12°C° 0,3 mm 1 m/s 685 mmHg 93%
    01:00 +12°C° 0,3 mm 1 m/s 685 mmHg 93%
    02:00 +12°C° 0,2 mm 1 m/s 685 mmHg 92%
    03:00 +11°C° 0,2 mm 1 m/s 685 mmHg 92%
    04:00 +11°C° 0,2 mm 1 m/s 685 mmHg 91%
    05:00 +13°C° 0,3 mm 1 m/s 686 mmHg 87%
    06:00 +15°C° 0,3 mm 1 m/s 686 mmHg 83%
    07:00 +15°C° 0,3 mm 0 m/s 686 mmHg 79%
    08:00 +19°C° 0,3 mm 1 m/s 687 mmHg 73%
    09:00 +20°C° 0,3 mm 1 m/s 687 mmHg 68%
    10:00 +22°C° 0,3 mm 1 m/s 687 mmHg 63%
    11:00 +22°C° 0,7 mm 1 m/s 687 mmHg 61%
    12:00 +23°C° 0,7 mm 1 m/s 687 mmHg 59%
    13:00 +23°C° 0,7 mm 1 m/s 687 mmHg 57%
    14:00 +23°C° 1,1 mm 1 m/s 687 mmHg 61%
    15:00 +22°C° 1,1 mm 1 m/s 686 mmHg 64%
    16:00 +22°C° 1,1 mm 1 m/s 686 mmHg 68%
    17:00 +21°C° 0,6 mm 1 m/s 686 mmHg 75%
    18:00 +18°C° 0,6 mm 0 m/s 686 mmHg 81%
    19:00 +17°C° 0,6 mm 0 m/s 686 mmHg 88%
    20:00 +16°C° 0,6 mm 0 m/s 686 mmHg 89%
    21:00 +16°C° 0,6 mm 1 m/s 686 mmHg 90%
    22:00 +14°C° 0,6 mm 1 m/s 686 mmHg 91%
    23:00 +14°C° 0,2 mm 1 m/s 686 mmHg 91%

    25 Mai, Vineri

    Timp Temperatura Precipitaţii Vânt Presiune Umiditate
    00:00 +13°C° 0,2 mm 1 m/s 686 mmHg 91%
    01:00 +13°C° 0,2 mm 1 m/s 686 mmHg 91%
    02:00 +12°C° 0 mm 1 m/s 686 mmHg 91%
    03:00 +12°C° 0 mm 1 m/s 686 mmHg 91%
    04:00 +12°C° 0 mm 1 m/s 686 mmHg 91%
    05:00 +13°C° 0 mm 1 m/s 686 mmHg 87%
    06:00 +15°C° 0 mm 1 m/s 687 mmHg 83%
    07:00 +18°C° 0 mm 1 m/s 687 mmHg 79%
    08:00 +20°C° 0 mm 1 m/s 687 mmHg 70%
    09:00 +22°C° 0 mm 1 m/s 688 mmHg 60%
    10:00 +24°C° 0 mm 1 m/s 688 mmHg 51%
    11:00 +25°C° 0,3 mm 1 m/s 688 mmHg 49%
    12:00 +25°C° 0,3 mm 2 m/s 688 mmHg 48%
    13:00 +26°C° 0,3 mm 2 m/s 688 mmHg 46%
    14:00 +25°C° 0,4 mm 2 m/s 688 mmHg 48%
    15:00 +25°C° 0,4 mm 2 m/s 688 mmHg 50%
    16:00 +25°C° 0,4 mm 2 m/s 688 mmHg 52%
    17:00 +23°C° 0,5 mm 2 m/s 688 mmHg 61%
    18:00 +21°C° 0,5 mm 2 m/s 687 mmHg 71%
    19:00 +20°C° 0,5 mm 1 m/s 687 mmHg 81%
    20:00 +19°C° 0,3 mm 1 m/s 687 mmHg 85%
    21:00 +18°C° 0,3 mm 1 m/s 688 mmHg 88%
    22:00 +15°C° 0,3 mm 1 m/s 688 mmHg 92%
    23:00 +15°C° 0,1 mm 1 m/s 688 mmHg 92%

    26 Mai, Sâmbătă

    Timp Temperatura Precipitaţii Vânt Presiune Umiditate
    00:00 +15°C° 0,1 mm 1 m/s 688 mmHg 91%
    01:00 +14°C° 0,1 mm 1 m/s 688 mmHg 90%
    02:00 +14°C° 0 mm 1 m/s 687 mmHg 90%
    03:00 +14°C° 0 mm 1 m/s 687 mmHg 89%
    04:00 +13°C° 0 mm 1 m/s 687 mmHg 88%
    05:00 +15°C° 0 mm 1 m/s 688 mmHg 82%
    06:00 +18°C° 0 mm 1 m/s 688 mmHg 76%
    07:00 +20°C° 0 mm 1 m/s 689 mmHg 70%
    08:00 +22°C° 0 mm 1 m/s 689 mmHg 62%
    09:00 +24°C° 0 mm 1 m/s 689 mmHg 53%
    10:00 +26°C° 0 mm 1 m/s 690 mmHg 44%
    11:00 +27°C° 0 mm 1 m/s 690 mmHg 41%
    12:00 +27°C° 0 mm 1 m/s 690 mmHg 39%
    13:00 +28°C° 0 mm 2 m/s 690 mmHg 36%
    14:00 +28°C° 0,1 mm 2 m/s 689 mmHg 38%
    15:00 +27°C° 0,1 mm 2 m/s 689 mmHg 40%
    16:00 +27°C° 0,1 mm 2 m/s 689 mmHg 42%
    17:00 +25°C° 0,2 mm 2 m/s 689 mmHg 53%
    18:00 +24°C° 0,2 mm 2 m/s 689 mmHg 63%
    19:00 +22°C° 0,2 mm 1 m/s 689 mmHg 74%
    20:00 +20°C° 0,1 mm 1 m/s 689 mmHg 79%
    21:00 +18°C° 0,1 mm 1 m/s 689 mmHg 84%
    22:00 +16°C° 0,1 mm 1 m/s 689 mmHg 88%
    23:00 +15°C° 0 mm 1 m/s 689 mmHg 87%

    27 Mai, Duminică

    Timp Temperatura Precipitaţii Vânt Presiune Umiditate
    00:00 +15°C° 0 mm 1 m/s 689 mmHg 86%
    01:00 +14°C° 0 mm 1 m/s 689 mmHg 86%
    02:00 +14°C° 0 mm 1 m/s 689 mmHg 84%
    03:00 +14°C° 0 mm 1 m/s 688 mmHg 82%
    04:00 +13°C° 0 mm 1 m/s 688 mmHg 80%
    05:00 +16°C° 0 mm 1 m/s 689 mmHg 73%
    06:00 +19°C° 0 mm 1 m/s 689 mmHg 66%
    07:00 +21°C° 0 mm 1 m/s 690 mmHg 59%
    08:00 +23°C° 0 mm 1 m/s 690 mmHg 51%
    09:00 +25°C° 0 mm 1 m/s 690 mmHg 43%
    10:00 +27°C° 0 mm 1 m/s 691 mmHg 35%
    11:00 +28°C° 0 mm 1 m/s 691 mmHg 33%
    12:00 +28°C° 0 mm 2 m/s 690 mmHg 32%
    13:00 +29°C° 0 mm 2 m/s 690 mmHg 31%
    14:00 +29°C° 0 mm 2 m/s 690 mmHg 34%
    15:00 +28°C° 0 mm 2 m/s 690 mmHg 37%
    16:00 +28°C° 0 mm 3 m/s 689 mmHg 39%
    17:00 +26°C° 0,2 mm 2 m/s 689 mmHg 51%
    18:00 +25°C° 0,2 mm 2 m/s 689 mmHg 62%
    19:00 +23°C° 0,2 mm 1 m/s 688 mmHg 73%
    20:00 +21°C° 0,2 mm 1 m/s 688 mmHg 79%
    21:00 +19°C° 0,2 mm 1 m/s 688 mmHg 84%
    22:00 +16°C° 0,2 mm 1 m/s 688 mmHg 90%
    23:00 +16°C° 0 mm 1 m/s 688 mmHg 89%
    Arată mai mult